TimeCST,TemperatureF,Dew PointF,Humidity,Sea Level PressureIn,VisibilityMPH,Wind Direction,Wind SpeedMPH,Gust SpeedMPH,PrecipitationIn,Events,Conditions,WindDirDegrees,DateUTC
12:53 AM,62.1,57.0,84,30.16,10.0,Calm,Calm,-,N/A,,Scattered Clouds,0,2012-11-21 06:53:00
1:53 AM,59.0,55.9,90,30.17,10.0,Calm,Calm,-,N/A,,Scattered Clouds,0,2012-11-21 07:53:00
2:53 AM,55.9,55.0,97,30.17,10.0,WNW,3.5,-,N/A,,Scattered Clouds,300,2012-11-21 08:53:00
3:53 AM,55.9,55.0,97,30.17,10.0,Calm,Calm,-,N/A,,Partly Cloudy,0,2012-11-21 09:53:00
4:53 AM,55.0,54.0,96,30.18,10.0,WNW,5.8,-,N/A,,Scattered Clouds,290,2012-11-21 10:53:00
5:53 AM,55.0,54.0,96,30.18,10.0,WNW,4.6,-,N/A,,Scattered Clouds,290,2012-11-21 11:53:00
6:53 AM,55.0,54.0,96,30.20,10.0,WNW,5.8,-,N/A,,Scattered Clouds,290,2012-11-21 12:53:00
7:53 AM,57.0,55.0,93,30.22,10.0,WNW,3.5,-,N/A,,Mostly Cloudy,300,2012-11-21 13:53:00
8:53 AM,62.1,57.9,86,30.23,10.0,Calm,Calm,-,N/A,,Overcast,0,2012-11-21 14:53:00
9:53 AM,66.9,59.0,76,30.24,10.0,Calm,Calm,-,N/A,,Overcast,0,2012-11-21 15:53:00
10:53 AM,70.0,57.9,65,30.24,10.0,SSW,5.8,-,N/A,,Overcast,200,2012-11-21 16:53:00
11:53 AM,72.0,57.9,61,30.21,10.0,Variable,3.5,-,N/A,,Mostly Cloudy,0,2012-11-21 17:53:00
12:53 PM,73.9,59.0,59,30.18,10.0,South,4.6,-,N/A,,Mostly Cloudy,170,2012-11-21 18:53:00
1:53 PM,75.9,57.9,54,30.15,10.0,SE,8.1,-,N/A,,Scattered Clouds,130,2012-11-21 19:53:00
2:53 PM,75.0,54.0,48,30.14,10.0,SE,3.5,-,N/A,,Mostly Cloudy,130,2012-11-21 20:53:00
3:53 PM,75.9,52.0,43,30.13,10.0,ESE,10.4,-,N/A,,Scattered Clouds,120,2012-11-21 21:53:00
4:53 PM,73.0,52.0,48,30.13,10.0,SE,6.9,-,N/A,,Scattered Clouds,140,2012-11-21 22:53:00
5:53 PM,69.1,52.0,54,30.14,10.0,SE,5.8,-,N/A,,Mostly Cloudy,140,2012-11-21 23:53:00
6:53 PM,64.9,53.1,65,30.15,10.0,ESE,4.6,-,N/A,,Scattered Clouds,120,2012-11-22 00:53:00
7:53 PM,64.0,54.0,70,30.16,10.0,Calm,Calm,-,N/A,,Scattered Clouds,0,2012-11-22 01:53:00
8:53 PM,64.0,53.1,67,30.16,10.0,Calm,Calm,-,N/A,,Scattered Clouds,0,2012-11-22 02:53:00
9:53 PM,62.1,52.0,70,30.15,10.0,SE,3.5,-,N/A,,Mostly Cloudy,130,2012-11-22 03:53:00
10:53 PM,62.1,54.0,75,30.15,10.0,South,6.9,-,N/A,,Scattered Clouds,170,2012-11-22 04:53:00
11:53 PM,59.0,54.0,83,30.13,10.0,SSE,4.6,-,N/A,,Mostly Cloudy,160,2012-11-22 05:53:00